Location: Valdosta
(30.8330°N, 83.2790°W)
Time: 10:45:40
(UTC-04:00)

Star 48 S/N 10029-3 - Visible Passes

Search period start: 23 April 2014 00:00
Search period end: 03 May 2014 00:00
Orbit: 242 x 389 km, 27.6° (Epoch: 23 April)

Date Brightness Start Highest point End Pass type
(mag) Time Alt. Az. Time Alt. Az. Time Alt. Az.
26 Apr 6.3 20:50:58 10° S 20:51:53 11° SSE 20:52:33 10° SE visible
27 Apr 5.7 21:01:52 10° SSW 21:04:13 19° SSE 21:04:55 18° SE visible
28 Apr 5.1 21:13:40 10° SW 21:16:29 29° SSE 21:17:03 27° SSE visible
29 Apr 4.6 21:25:42 10° WSW 21:28:43 39° S 21:28:57 39° SSE visible
30 Apr 4.6 21:37:49 10° WSW 21:40:39 45° SSW 21:40:39 45° SSW visible
01 May 5.2 21:49:54 10° WSW 21:52:10 35° SW 21:52:10 35° SW visible
02 May 6.0 22:01:59 10° WSW 22:03:31 23° WSW 22:03:31 23° WSW visible
